INTELSAT 37E (IS-37E) (42950 NORAD) Tracking and Keplerian Element Data

This shows tracking and keplerian element data for the satellite.

Feedback or suggestion? Click here.




ElementValue
Catalog42950
NameINTELSAT 37E (IS-37E)
Epoch Orbit2706
Epoch Day34.75151441
Epoch Year2025
RAAN100.0096
Inclination0.0169
Eccentricity0.000274
Argument of Perigee198.8882
Mean Anonmoly87.7847
Mean Motion1.00271122
Decay Rate-1.36E-06
L11 42950U 17059A 25034.75151441 -.00000136 00000+0 00000+0 0 9993
L22 42950 0.0169 100.0096 0002740 198.8882 87.7847 1.00271122 27063



Live tracking and technical data element details for INTELSAT 37E (IS-37E) (NORAD 42950). INTELSAT 37E (IS-37E) can be tracked NOW for your location showing map with azimuth and elevation plus other details from your city location.







IsCatalogInMostPopularTable: catalog: 42950, numindb: 1485
Update: records affected: 1



GetName: 42950 INTELSAT 37E (IS-37E)

Hit Count: updated at: Sat, 17 May 2025 09:11:15 GMT